Wind_Speed
7 7 7 7 6 6 5 5 6 7 7 6 6 6 6 5 4 3 4 4 4 4 4 5 5 5 7 7 8 8 7 8 7 6 5 6 6 6 6 7 7 7 7 8
9 9 9 8 7 7 6 5 7 7 6 5 6 6 6 6 4 4 5 5 5 6 5 5 5 5 5 6 7 7 7 8 8 7 6 6 6 6 7 7 8 8 9 9
11 11 10 9 8 8 7 7 8 7 5 6 6 7 7 6 5 5 6 6 6 7 7 6 5 5 5 5 6 6 6 7 8 8 9 8 7 7 8 8 9 9 10 10
13 12 12 11 10 8 8 8 9 8 6 7 6 5 7 6 5 5 5 6 7 7 7 6 6 5 5 4 5 5 5 7 7 8 8 8 8 8 9 9 10 10 10 11
14 14 13 12 11 10 10 9 8 8 7 7 8 5 7 7 6 6 6 7 7 8 7 6 7 6 5 5 5 5 6 7 8 8 9 9 9 9 10 10 10 11 12 12
14 14 14 13 13 12 10 9 8 8 8 8 8 7 7 8 8 7 7 7 7 7 7 7 6 6 5 5 5 6 7 8 9 9 10 10 10 11 11 12 12 12 13 14
14 14 15 14 14 13 11 9 9 9 9 10 10 8 8 9 9 8 8 8 8 7 8 8 7 7 7 7 6 7 8 9 9 10 11 11 12 12 12 13 14 14 15 15
15 15 15 15 15 13 12 11 11 10 10 11 11 10 10 10 10 9 9 9 8 8 8 9 9 9 9 8 8 9 10 10 11 11 12 13 13 14 14 15 16 16 16 16
17 17 17 16 15 15 13 13 12 11 11 10 11 11 11 11 10 10 10 9 9 10 10 10 11 11 11 10 10 10 11 12 13 13 14 15 16 16 16 16 17 18 18 18
19 18 18 17 16 16 15 14 13 12 13 12 12 11 11 11 10 10 10 10 10 10 11 11 11 12 11 11 12 12 13 14 14 14 15 17 17 18 18 18 18 19 19 19
18 18 18 17 17 16 16 16 15 14 14 12 12 12 12 12 12 11 10 10 11 11 11 11 11 12 12 13 13 13 14 15 15 15 17 18 19 19 20 20 20 20 20 21
18 18 19 18 17 18 18 16 15 15 15 14 13 13 12 12 11 11 11 11 11 11 11 12 13 14 14 15 14 14 15 16 16 17 19 20 21 21 22 22 21 21 21 22
19 19 18 17 17 17 17 16 16 15 15 14 13 13 13 13 12 11 11 11 11 12 13 14 15 15 16 16 16 16 17 18 19 20 21 21 22 22 22 23 23 23 23 23
20 20 19 18 17 17 17 17 16 15 14 14 13 14 15 14 13 13 13 13 13 14 15 15 15 16 16 17 17 18 19 20 20 21 22 23 23 23 24 23 24 24 24 25
21 21 21 20 19 20 19 17 16 16 15 15 14 14 15 15 14 14 15 15 15 15 15 15 15 16 16 17 18 19 21 21 22 23 23 24 24 24 25 24 25 25 25 25
21 21 20 20 20 20 19 18 18 17 17 16 15 16 16 17 16 15 15 16 17 17 17 16 17 17 17 18 19 21 21 22 23 24 25 25 25 25 25 26 25 25 25 25
22 21 20 20 21 20 20 18 18 18 17 16 16 16 17 17 17 16 16 16 17 18 18 18 18 19 18 19 20 21 22 23 24 25 25 25 26 26 27 26 26 26 26 26
23 22 21 20 20 20 19 18 18 17 17 17 17 18 18 17 18 18 17 17 17 18 18 19 19 20 20 21 22 23 23 24 24 24 24 26 26 26 26 26 26 26 27 27
24 23 22 21 20 20 20 18 18 18 18 18 18 18 19 19 19 19 18 18 18 18 18 19 20 20 21 22 23 23 23 24 24 24 25 26 27 26 26 26 27 27 27 28
25 25 25 24 22 21 20 19 18 18 18 18 18 18 19 19 19 19 19 19 19 19 19 19 20 21 22 22 23 24 24 25 25 26 27 28 28 28 28 28 27 28 28 28
26 26 26 25 24 22 22 20 19 19 18 18 18 18 19 19 20 20 20 20 20 20 20 20 21 22 23 25 25 25 26 26 27 28 29 29 29 30 30 30 30 29 29 30
27 27 26 26 25 24 24 22 21 20 20 20 19 20 20 21 21 22 22 22 22 22 22 22 23 24 25 26 26 27 28 28 29 29 29 30 30 30 30 31 31 31 30 30
29 28 27 27 26 25 24 23 23 22 21 21 21 21 21 22 22 23 23 23 23 23 23 23 24 25 26 26 27 27 28 29 30 29 30 30 30 30 31 31 31 31 31 31
29 28 28 28 28 27 25 24 24 23 23 22 22 22 22 22 22 22 22 23 23 24 24 24 25 26 27 28 28 29 29 29 29 30 30 30 30 31 31 31 31 31 31 30
28 28 28 28 28 27 26 25 25 24 24 23 23 23 22 22 22 22 22 23 24 25 25 26 27 27 28 28 28 29 29 29 29 29 30 30 30 31 31 32 32 31 31 30
28 28 27 27 27 27 26 26 25 25 24 24 23 23 23 23 23 24 24 24 25 26 27 27 28 28 29 28 28 28 29 29 29 29 30 30 31 31 32 32 32 32 31 31
Wind_Direction
232 237 236 240 238 240 256 276 293 296 303 304 310 319 325 329 317 325 335 334 330 326 335 352 10 20 22 27 28 30 32 30 28 29 33 31 24 18 15 9 9 4 360 359
235 236 236 232 234 245 260 276 287 290 298 305 310 315 313 314 304 306 318 321 323 321 313 323 341 355 6 16 19 21 27 25 21 20 17 9 5 2 359 359 358 354 350 346
230 233 233 232 235 242 256 266 277 284 294 306 312 315 311 309 299 296 303 311 311 320 311 310 314 325 339 357 6 7 11 14 13 12 12 9 5 0 355 351 351 350 348 344
231 231 233 234 237 240 252 262 270 281 291 300 306 305 298 301 296 290 297 305 307 312 309 303 301 307 321 334 345 349 352 355 358 1 0 357 356 355 353 348 345 342 338 335
234 231 234 236 240 245 249 255 261 271 281 292 298 292 286 288 283 286 293 302 303 307 304 295 295 297 307 314 328 336 339 342 343 345 347 346 345 343 341 339 335 332 330 329
233 232 233 236 241 245 250 256 266 275 281 283 286 282 280 283 284 284 290 297 303 302 296 291 290 290 297 303 311 322 326 329 330 332 334 338 338 336 335 334 331 328 327 325
238 238 236 237 240 246 248 252 264 273 277 280 284 282 279 281 283 281 283 290 292 292 287 286 282 285 291 301 305 313 316 319 322 325 326 329 329 327 327 328 327 325 324 321
240 242 239 238 239 244 247 243 245 255 266 277 285 284 282 284 283 285 282 284 283 281 281 281 283 282 285 294 304 309 310 312 317 321 321 322 322 321 321 322 321 320 319 317
237 239 239 239 239 241 244 244 245 255 266 272 278 287 288 284 284 285 286 283 278 277 278 280 280 278 280 288 297 301 304 307 311 314 316 316 317 317 316 317 317 316 314 313
237 239 240 237 238 240 242 247 250 254 261 267 278 282 282 291 287 284 284 282 281 280 279 280 278 275 280 287 291 293 299 303 304 308 313 314 314 313 313 312 312 311 311 310
236 238 238 238 237 240 245 248 249 253 257 260 269 275 277 286 291 289 288 284 282 283 284 284 281 280 281 285 287 289 294 299 299 303 308 310 310 309 309 308 307 307 308 308
235 237 238 240 241 242 246 247 250 255 261 260 260 270 276 281 287 286 286 286 280 280 282 286 287 285 284 283 283 286 290 295 298 301 304 306 307 308 307 306 305 305 306 306
233 234 235 239 244 246 247 249 250 253 262 263 259 265 272 278 280 282 283 284 283 281 284 286 288 286 285 284 283 286 288 292 296 300 303 304 305 306 307 306 305 306 305 305
234 234 232 235 242 248 251 248 249 250 256 263 260 262 270 273 274 278 280 281 280 281 283 286 288 287 287 288 286 287 288 291 295 299 301 303 304 304 305 305 305 305 305 304
234 236 237 236 240 247 249 248 248 251 253 259 263 262 266 273 273 276 276 278 280 280 281 283 284 284 285 289 291 290 290 291 294 297 299 300 302 304 306 306 306 305 305 305
234 236 239 241 242 246 246 248 249 250 252 258 261 265 267 272 274 275 276 277 279 278 279 281 283 284 286 290 292 292 292 293 295 296 296 298 299 302 304 304 304 306 305 305
235 236 239 244 246 247 246 246 250 252 253 255 257 262 266 268 272 273 275 276 279 278 278 279 282 286 290 290 291 292 292 294 296 297 297 297 298 300 302 302 303 303 304 305
234 235 238 242 241 241 246 249 251 252 255 256 258 260 265 268 269 270 271 274 278 281 279 281 284 287 287 289 292 292 290 291 294 298 300 299 299 301 302 301 301 302 303 304
235 236 238 239 242 246 248 250 252 252 254 258 260 262 265 268 268 269 270 272 279 281 282 282 284 286 287 288 290 291 290 291 293 296 298 299 300 301 302 301 300 302 303 303
236 237 239 241 242 246 251 252 255 254 256 256 260 265 268 269 270 272 271 273 278 281 283 282 283 286 287 289 290 292 293 293 293 294 295 297 298 299 301 303 303 302 302 302
238 239 239 241 244 247 250 252 254 254 256 258 260 264 267 269 272 274 274 274 277 280 282 284 283 285 286 288 291 292 295 295 295 294 295 296 297 299 300 303 303 303 302 303
238 240 240 242 243 246 248 251 252 255 256 258 260 262 265 268 270 274 276 276 275 277 280 284 287 287 288 289 290 292 293 294 296 297 298 300 301 303 304 304 304 303 303 302
237 237 240 241 243 246 249 251 253 254 257 259 260 262 264 266 270 275 276 275 274 276 281 284 287 289 290 292 293 293 294 295 296 296 299 301 302 303 304 304 304 304 303 302
236 237 240 242 244 247 249 251 252 253 254 258 261 264 264 266 271 274 275 276 278 280 282 284 286 289 291 293 294 295 296 297 297 298 299 301 301 302 303 304 304 304 304 303
236 238 239 242 245 248 248 249 251 252 254 257 261 267 268 268 271 273 274 276 277 279 282 285 287 289 292 293 294 295 296 297 299 300 300 302 303 303 304 304 304 304 303 303
237 239 241 243 244 246 247 247 248 251 254 257 261 265 267 270 273 273 273 275 277 279 283 286 288 291 292 292 294 297 297 298 300 300 301 302 303 303 304 304 304 304 303 303
Height
5911 5914 5914 5915 5916 5917 5917 5918 5918 5916 5915 5915 5914 5913 5912 5911 5910 5909 5908 5907 5906 5905 5904 5903 5902 5900 5899 5897 5895 5894 5892 5891 5890 5888 5887 5885 5884 5883 5881 5880 5879 5877 5876 5875
5910 5911 5912 5912 5913 5914 5915 5916 5916 5915 5914 5913 5913 5912 5911 5910 5909 5909 5908 5907 5906 5905 5904 5903 5902 5900 5899 5898 5896 5895 5893 5892 5890 5889 5887 5886 5884 5883 5882 5880 5879 5877 5876 5875
5907 5910 5910 5911 5911 5913 5914 5915 5914 5913 5913 5912 5912 5912 5910 5909 5908 5908 5907 5906 5905 5904 5903 5902 5901 5900 5899 5898 5897 5895 5894 5892 5891 5889 5888 5886 5884 5883 5882 5880 5879 5877 5876 5874
5904 5906 5907 5908 5909 5911 5912 5912 5912 5912 5912 5912 5911 5912 5910 5908 5908 5907 5906 5905 5904 5903 5902 5901 5900 5899 5899 5898 5897 5896 5894 5893 5891 5890 5888 5886 5885 5883 5881 5880 5878 5876 5875 5873
5901 5903 5904 5906 5907 5908 5909 5910 5910 5910 5910 5911 5910 5910 5910 5907 5906 5906 5905 5904 5903 5902 5901 5900 5899 5899 5898 5897 5896 5895 5894 5893 5891 5890 5888 5886 5884 5883 5881 5879 5877 5875 5873 5872
5899 5900 5901 5903 5904 5905 5906 5908 5908 5908 5909 5910 5909 5909 5909 5906 5905 5904 5904 5903 5902 5901 5900 5899 5898 5898 5897 5896 5895 5894 5893 5892 5891 5889 5887 5885 5883 5882 5880 5878 5876 5874 5872 5870
5895 5897 5898 5900 5901 5903 5904 5907 5908 5908 5909 5909 5907 5906 5906 5904 5903 5902 5902 5901 5900 5900 5899 5898 5897 5897 5896 5895 5894 5893 5892 5891 5889 5888 5886 5884 5882 5880 5878 5876 5874 5872 5869 5867
5893 5895 5895 5897 5899 5900 5901 5904 5906 5908 5908 5908 5904 5903 5904 5902 5901 5900 5899 5899 5898 5898 5897 5896 5895 5895 5894 5893 5892 5891 5890 5889 5888 5886 5885 5883 5880 5878 5876 5874 5872 5870 5867 5865
5890 5892 5892 5893 5895 5897 5898 5899 5902 5903 5903 5904 5903 5901 5900 5899 5898 5898 5897 5896 5896 5895 5895 5894 5893 5892 5892 5891 5891 5889 5888 5887 5885 5884 5882 5880 5878 5876 5873 5871 5869 5866 5864 5862
5886 5888 5889 5890 5891 5893 5895 5896 5898 5899 5900 5901 5901 5900 5899 5897 5896 5896 5895 5894 5894 5893 5893 5892 5891 5890 5890 5889 5888 5887 5886 5884 5882 5881 5879 5877 5875 5873 5870 5868 5865 5863 5861 5858
5881 5884 5885 5886 5888 5889 5891 5893 5894 5895 5896 5898 5899 5900 5895 5895 5894 5893 5892 5892 5891 5890 5890 5889 5889 5888 5887 5886 5885 5884 5883 5881 5879 5878 5876 5874 5871 5869 5866 5864 5861 5859 5857 5854
5876 5879 5881 5883 5884 5885 5887 5888 5890 5892 5891 5892 5894 5897 5892 5891 5891 5890 5889 5889 5888 5888 5887 5887 5886 5885 5884 5883 5882 5881 5879 5878 5876 5874 5872 5870 5867 5864 5862 5859 5857 5854 5852 5849
5872 5875 5877 5879 5882 5882 5882 5883 5885 5887 5888 5888 5890 5893 5888 5888 5888 5887 5886 5886 5885 5885 5884 5884 5883 5882 5881 5880 5879 5877 5876 5874 5872 5870 5868 5865 5863 5860 5857 5854 5852 5849 5846 5844
5868 5870 5874 5877 5878 5877 5878 5879 5881 5882 5884 5885 5886 5887 5885 5884 5884 5884 5883 5882 5882 5881 5881 5880 5879 5878 5877 5876 5875 5873 5871 5869 5867 5865 5863 5861 5858 5855 5852 5849 5847 5844 5841 5838
5863 5866 5868 5870 5871 5872 5874 5875 5876 5878 5880 5881 5881 5881 5881 5880 5880 5880 5879 5878 5878 5877 5876 5876 5875 5874 5873 5872 5870 5868 5866 5864 5862 5860 5858 5855 5852 5849 5846 5844 5841 5838 5835 5832
5858 5860 5863 5864 5866 5867 5869 5871 5872 5873 5874 5875 5876 5877 5876 5876 5876 5875 5875 5874 5873 5873 5872 5871 5870 5869 5868 5867 5865 5863 5861 5860 5858 5855 5853 5850 5847 5844 5841 5838 5835 5832 5829 5826
5853 5855 5858 5860 5861 5862 5864 5866 5867 5869 5869 5871 5871 5872 5871 5871 5871 5871 5870 5870 5869 5868 5867 5866 5865 5864 5863 5862 5860 5858 5856 5854 5852 5849 5847 5844 5841 5838 5835 5832 5829 5826 5823 5820
5848 5850 5853 5855 5857 5858 5862 5861 5862 5864 5864 5865 5866 5866 5866 5866 5866 5866 5865 5865 5864 5863 5862 5861 5860 5859 5858 5856 5854 5852 5850 5848 5846 5843 5841 5838 5835 5832 5829 5826 5822 5819 5816 5813
5843 5845 5848 5850 5851 5853 5855 5856 5857 5858 5859 5860 5860 5861 5861 5861 5861 5861 5860 5860 5859 5858 5857 5856 5855 5854 5852 5851 5849 5847 5844 5842 5840 5838 5835 5832 5829 5826 5823 5819 5816 5813 5809 5806
5837 5839 5842 5844 5846 5848 5851 5851 5851 5854 5854 5855 5855 5855 5855 5856 5856 5856 5855 5855 5854 5853 5852 5851 5849 5848 5847 5845 5843 5841 5839 5836 5834 5831 5828 5825 5822 5819 5816 5813 5809 5806 5803 5799
5830 5832 5835 5838 5840 5843 5844 5845 5846 5849 5850 5849 5850 5850 5850 5850 5851 5851 5850 5849 5849 5848 5847 5845 5844 5843 5841 5839 5837 5835 5833 5830 5827 5824 5821 5819 5815 5812 5809 5805 5802 5799 5795 5792
5823 5826 5828 5831 5834 5838 5837 5839 5841 5842 5843 5843 5844 5844 5845 5845 5845 5845 5844 5844 5843 5842 5841 5840 5839 5837 5835 5833 5831 5829 5826 5823 5820 5817 5814 5811 5808 5805 5801 5798 5795 5791 5787 5784
5816 5820 5822 5825 5829 5829 5830 5833 5834 5836 5836 5837 5838 5838 5839 5839 5839 5839 5839 5838 5837 5836 5835 5834 5833 5831 5829 5827 5824 5822 5819 5816 5813 5810 5807 5804 5801 5798 5794 5791 5787 5783 5780 5776
5808 5811 5814 5817 5819 5821 5824 5826 5827 5829 5830 5831 5832 5832 5833 5833 5833 5833 5832 5832 5831 5830 5829 5828 5827 5825 5823 5821 5818 5815 5813 5810 5807 5803 5800 5797 5793 5790 5786 5783 5779 5775 5772 5768
5801 5804 5807 5809 5812 5814 5816 5818 5820 5822 5823 5824 5825 5826 5826 5826 5827 5826 5826 5825 5824 5824 5823 5821 5820 5818 5816 5814 5811 5808 5806 5803 5799 5796 5792 5789 5786 5782 5779 5775 5771 5768 5764 5760
5794 5797 5800 5802 5804 5807 5809 5811 5813 5815 5817 5818 5819 5820 5820 5820 5820 5819 5819 5818 5818 5817 5816 5814 5813 5811 5809 5806 5804 5801 5799 5795 5792 5789 5785 5782 5778 5774 5771 5767 5763 5759 5756 5752